Time,TemperatureF,DewpointF,PressureIn,WindDirection,WindDirectionDegrees,WindSpeedMPH,WindSpeedGustMPH,Humidity,HourlyPrecipIn,Conditions,Clouds,dailyrainin,SolarRadiationWatts/m^2,SoftwareType,DateUTC
2013-10-08 00:05:00,53.3,41.4,30.08,SSE,157,5.0,8.0,64,0.00,,,0.00,0,Wunderground v.1.15,2013-10-08 05:05:00,
2013-10-08 00:11:00,53.3,41.8,30.08,SSE,156,5.0,8.0,65,0.00,,,0.00,0,Wunderground v.1.15,2013-10-08 05:11:00,
2013-10-08 00:17:00,53.6,41.7,30.07,SSE,155,5.0,8.0,64,0.00,,,0.00,0,Wunderground v.1.15,2013-10-08 05:17:00,
2013-10-08 00:23:00,53.7,41.8,30.07,SSE,155,5.0,8.0,64,0.00,,,0.00,0,Wunderground v.1.15,2013-10-08 05:23:00,
2013-10-08 00:29:00,53.6,41.7,30.07,SSE,154,6.0,8.0,64,0.00,,,0.00,0,Wunderground v.1.15,2013-10-08 05:29:00,
2013-10-08 00:35:00,53.4,41.9,30.07,SSE,154,5.0,8.0,65,0.00,,,0.00,0,Wunderground v.1.15,2013-10-08 05:35:00,
2013-10-08 00:42:00,53.3,41.4,30.07,SSE,154,6.0,8.0,64,0.00,,,0.00,0,Wunderground v.1.15,2013-10-08 05:42:00,
2013-10-08 00:47:00,53.2,41.7,30.07,SSE,154,5.0,8.0,65,0.00,,,0.00,0,Wunderground v.1.15,2013-10-08 05:47:00,
2013-10-08 00:53:00,53.2,41.7,30.07,SSE,154,4.0,8.0,65,0.00,,,0.00,0,Wunderground v.1.15,2013-10-08 05:53:00,
2013-10-08 01:00:00,53.0,41.5,30.07,SSE,154,4.0,8.0,65,0.00,,,0.00,0,Wunderground v.1.15,2013-10-08 06:00:00,
2013-10-08 01:05:00,52.8,41.7,30.07,SSE,154,3.0,3.0,66,0.00,,,0.00,0,Wunderground v.1.15,2013-10-08 06:05:00,
2013-10-08 01:12:00,52.5,41.5,30.07,SSE,154,3.0,3.0,66,0.00,,,0.00,0,Wunderground v.1.15,2013-10-08 06:12:00,
2013-10-08 01:17:00,52.5,41.9,30.07,SSE,154,3.0,4.0,67,0.00,,,0.00,0,Wunderground v.1.15,2013-10-08 06:17:00,
2013-10-08 01:24:00,52.4,41.8,30.07,SSE,154,4.0,4.0,67,0.00,,,0.00,0,Wunderground v.1.15,2013-10-08 06:24:00,
2013-10-08 01:29:00,52.1,41.5,30.07,SSE,154,4.0,4.0,67,0.00,,,0.00,0,Wunderground v.1.15,2013-10-08 06:29:00,
2013-10-08 01:36:00,51.5,41.3,30.07,SSE,154,2.0,3.0,68,0.00,,,0.00,0,Wunderground v.1.15,2013-10-08 06:36:00,
2013-10-08 01:41:00,51.3,41.5,30.07,SSE,154,2.0,9.0,69,0.00,,,0.00,0,Wunderground v.1.15,2013-10-08 06:41:00,
2013-10-08 01:47:00,51.2,41.4,30.07,SSE,154,2.0,9.0,69,0.00,,,0.00,0,Wunderground v.1.15,2013-10-08 06:47:00,
2013-10-08 01:53:00,50.9,41.1,30.07,SSE,154,2.0,9.0,69,0.00,,,0.00,0,Wunderground v.1.15,2013-10-08 06:53:00,
2013-10-08 02:00:00,50.9,41.1,30.07,SSE,154,2.0,9.0,69,0.00,,,0.00,0,Wunderground v.1.15,2013-10-08 07:00:00,
2013-10-08 02:05:00,51.2,41.0,30.07,SSE,154,4.0,9.0,68,0.00,,,0.00,0,Wunderground v.1.15,2013-10-08 07:05:00,
2013-10-08 02:11:00,51.2,41.0,30.07,SSE,154,4.0,9.0,68,0.00,,,0.00,0,Wunderground v.1.15,2013-10-08 07:11:00,
2013-10-08 02:17:00,51.1,40.9,30.07,SSE,154,4.0,9.0,68,0.00,,,0.00,0,Wunderground v.1.15,2013-10-08 07:17:00,
2013-10-08 02:23:00,51.3,41.1,30.07,SSE,154,5.0,9.0,68,0.00,,,0.00,0,Wunderground v.1.15,2013-10-08 07:23:00,
2013-10-08 02:30:00,51.5,40.9,30.07,SSE,154,4.0,9.0,67,0.00,,,0.00,0,Wunderground v.1.15,2013-10-08 07:30:00,
2013-10-08 02:35:00,51.5,40.9,30.07,SSE,154,4.0,9.0,67,0.00,,,0.00,0,Wunderground v.1.15,2013-10-08 07:35:00,
2013-10-08 02:42:00,51.6,41.0,30.07,SSE,155,4.0,4.0,67,0.00,,,0.00,0,Wunderground v.1.15,2013-10-08 07:42:00,
2013-10-08 02:47:00,51.3,41.1,30.07,SSE,156,4.0,9.0,68,0.00,,,0.00,0,Wunderground v.1.15,2013-10-08 07:47:00,
2013-10-08 02:53:00,50.8,41.0,30.07,SSE,156,4.0,9.0,69,0.00,,,0.00,0,Wunderground v.1.15,2013-10-08 07:53:00,
2013-10-08 02:59:00,50.6,40.8,30.07,SSE,156,4.0,9.0,69,0.00,,,0.00,0,Wunderground v.1.15,2013-10-08 07:59:00,
2013-10-08 03:06:00,50.7,40.9,30.07,SSE,156,5.0,9.0,69,0.00,,,0.00,0,Wunderground v.1.15,2013-10-08 08:06:00,
2013-10-08 03:11:00,50.6,41.2,30.07,SSE,155,5.0,5.0,70,0.00,,,0.00,0,Wunderground v.1.15,2013-10-08 08:11:00,
2013-10-08 03:17:00,50.5,41.1,30.06,SSE,155,4.0,9.0,70,0.00,,,0.00,0,Wunderground v.1.15,2013-10-08 08:17:00,
2013-10-08 03:23:00,50.2,40.8,30.07,SSE,155,4.0,9.0,70,0.00,,,0.00,0,Wunderground v.1.15,2013-10-08 08:23:00,
2013-10-08 03:29:00,50.4,41.0,30.06,SSE,155,4.0,9.0,70,0.00,,,0.00,0,Wunderground v.1.15,2013-10-08 08:29:00,
2013-10-08 03:35:00,50.8,41.4,30.06,SSE,155,5.0,9.0,70,0.00,,,0.00,0,Wunderground v.1.15,2013-10-08 08:35:00,
2013-10-08 03:41:00,50.7,41.3,30.07,SSE,156,4.0,9.0,70,0.00,,,0.00,0,Wunderground v.1.15,2013-10-08 08:41:00,
2013-10-08 03:47:00,50.2,41.2,30.07,SSE,156,3.0,9.0,71,0.00,,,0.00,0,Wunderground v.1.15,2013-10-08 08:47:00,
2013-10-08 03:53:00,49.6,40.9,30.07,SSE,156,3.0,9.0,72,0.00,,,0.00,0,Wunderground v.1.15,2013-10-08 08:53:00,
2013-10-08 04:00:00,49.4,41.1,30.07,SSE,156,3.0,9.0,73,0.00,,,0.00,0,Wunderground v.1.15,2013-10-08 09:00:00,
2013-10-08 04:05:00,49.4,41.1,30.07,SSE,156,3.0,9.0,73,0.00,,,0.00,0,Wunderground v.1.15,2013-10-08 09:05:00,
2013-10-08 04:12:00,49.4,41.1,30.07,SSE,156,3.0,9.0,73,0.00,,,0.00,0,Wunderground v.1.15,2013-10-08 09:12:00,
2013-10-08 04:17:00,49.0,41.1,30.07,SSE,157,2.0,9.0,74,0.00,,,0.00,0,Wunderground v.1.15,2013-10-08 09:17:00,
2013-10-08 04:23:00,48.9,41.0,30.07,SSE,157,2.0,9.0,74,0.00,,,0.00,0,Wunderground v.1.15,2013-10-08 09:23:00,
2013-10-08 04:29:00,48.6,40.7,30.07,SSE,157,2.0,9.0,74,0.00,,,0.00,0,Wunderground v.1.15,2013-10-08 09:29:00,
2013-10-08 04:35:00,48.4,40.8,30.07,SSE,157,2.0,9.0,75,0.00,,,0.00,0,Wunderground v.1.15,2013-10-08 09:35:00,
2013-10-08 04:41:00,48.3,40.7,30.07,SSE,157,1.0,9.0,75,0.00,,,0.00,0,Wunderground v.1.15,2013-10-08 09:41:00,
2013-10-08 04:47:00,48.3,40.7,30.08,SSE,157,0.0,9.0,75,0.00,,,0.00,0,Wunderground v.1.15,2013-10-08 09:47:00,
2013-10-08 04:53:00,48.2,40.6,30.08,SSE,157,0.0,9.0,75,0.00,,,0.00,0,Wunderground v.1.15,2013-10-08 09:53:00,
2013-10-08 04:59:00,48.1,40.9,30.08,SSE,157,0.0,9.0,76,0.00,,,0.00,0,Wunderground v.1.15,2013-10-08 09:59:00,
2013-10-08 05:05:00,47.8,40.6,30.08,SSE,157,0.0,9.0,76,0.00,,,0.00,0,Wunderground v.1.15,2013-10-08 10:05:00,
2013-10-08 05:11:00,47.4,40.2,30.07,SSE,157,0.0,9.0,76,0.00,,,0.00,0,Wunderground v.1.15,2013-10-08 10:11:00,
2013-10-08 05:17:00,47.2,40.4,30.07,SSE,157,1.0,9.0,77,0.00,,,0.00,0,Wunderground v.1.15,2013-10-08 10:17:00,
2013-10-08 05:24:00,47.2,40.7,30.07,SSE,157,2.0,9.0,78,0.00,,,0.00,0,Wunderground v.1.15,2013-10-08 10:24:00,
2013-10-08 05:29:00,47.7,41.2,30.07,SSE,156,4.0,9.0,78,0.00,,,0.00,0,Wunderground v.1.15,2013-10-08 10:29:00,
2013-10-08 05:35:00,48.0,41.1,30.07,SSE,156,5.0,9.0,77,0.00,,,0.00,0,Wunderground v.1.15,2013-10-08 10:35:00,
2013-10-08 05:41:00,48.1,40.9,30.07,SSE,156,5.0,9.0,76,0.00,,,0.00,0,Wunderground v.1.15,2013-10-08 10:41:00,
2013-10-08 05:47:00,48.1,41.2,30.07,SSE,156,5.0,9.0,77,0.00,,,0.00,0,Wunderground v.1.15,2013-10-08 10:47:00,
2013-10-08 05:53:00,48.5,41.6,30.07,SSE,155,5.0,9.0,77,0.00,,,0.00,0,Wunderground v.1.15,2013-10-08 10:53:00,
2013-10-08 05:59:00,48.5,41.6,30.07,SSE,155,5.0,9.0,77,0.00,,,0.00,0,Wunderground v.1.15,2013-10-08 10:59:00,
2013-10-08 06:05:00,48.4,41.5,30.07,SSE,155,4.0,9.0,77,0.00,,,0.00,0,Wunderground v.1.15,2013-10-08 11:05:00,
2013-10-08 06:11:00,48.3,41.4,30.07,SSE,155,4.0,9.0,77,0.00,,,0.00,0,Wunderground v.1.15,2013-10-08 11:11:00,
2013-10-08 06:17:00,48.3,41.4,30.07,SSE,155,4.0,9.0,77,0.00,,,0.00,0,Wunderground v.1.15,2013-10-08 11:17:00,
2013-10-08 06:23:00,48.2,41.3,30.07,SSE,155,4.0,9.0,77,0.00,,,0.00,0,Wunderground v.1.15,2013-10-08 11:23:00,
2013-10-08 06:29:00,48.1,41.6,30.08,SSE,155,4.0,9.0,78,0.00,,,0.00,0,Wunderground v.1.15,2013-10-08 11:29:00,
2013-10-08 06:35:00,47.8,40.9,30.08,SSE,155,3.0,9.0,77,0.00,,,0.00,0,Wunderground v.1.15,2013-10-08 11:35:00,
2013-10-08 06:42:00,47.4,40.9,30.08,SSE,155,2.0,2.0,78,0.00,,,0.00,0,Wunderground v.1.15,2013-10-08 11:42:00,
2013-10-08 06:47:00,47.2,41.0,30.08,SSE,155,2.0,9.0,79,0.00,,,0.00,0,Wunderground v.1.15,2013-10-08 11:47:00,
2013-10-08 06:53:00,47.4,41.2,30.08,SSE,155,2.0,9.0,79,0.00,,,0.00,0,Wunderground v.1.15,2013-10-08 11:53:00,
2013-10-08 06:59:00,47.5,41.3,30.08,SSE,155,3.0,9.0,79,0.00,,,0.00,0,Wunderground v.1.15,2013-10-08 11:59:00,
2013-10-08 07:05:00,47.8,41.6,30.08,SSE,155,3.0,9.0,79,0.00,,,0.00,0,Wunderground v.1.15,2013-10-08 12:05:00,
2013-10-08 07:11:00,48.0,41.8,30.08,SSE,155,4.0,9.0,79,0.00,,,0.00,0,Wunderground v.1.15,2013-10-08 12:11:00,
2013-10-08 07:17:00,48.0,41.5,30.08,SSE,155,4.0,9.0,78,0.00,,,0.00,0,Wunderground v.1.15,2013-10-08 12:17:00,
2013-10-08 07:23:00,47.8,41.3,30.08,SSE,155,3.0,9.0,78,0.00,,,0.00,0,Wunderground v.1.15,2013-10-08 12:23:00,
2013-10-08 07:29:00,47.9,41.7,30.08,SSE,155,3.0,9.0,79,0.00,,,0.00,0,Wunderground v.1.15,2013-10-08 12:29:00,
2013-10-08 07:35:00,48.1,41.6,30.07,SSE,155,4.0,9.0,78,0.00,,,0.00,7,Wunderground v.1.15,2013-10-08 12:35:00,
2013-10-08 07:41:00,48.3,41.8,30.07,SSE,155,5.0,9.0,78,0.00,,,0.00,9,Wunderground v.1.15,2013-10-08 12:41:00,
2013-10-08 07:47:00,48.5,42.0,30.07,SSE,154,5.0,9.0,78,0.00,,,0.00,12,Wunderground v.1.15,2013-10-08 12:47:00,
2013-10-08 07:53:00,48.7,42.1,30.07,SSE,154,6.0,9.0,78,0.00,,,0.00,16,Wunderground v.1.15,2013-10-08 12:53:00,
2013-10-08 08:01:00,48.9,42.3,30.07,SSE,152,6.0,6.0,78,0.00,,,0.00,28,Wunderground v.1.15,2013-10-08 13:01:00,
2013-10-08 08:07:00,49.3,42.7,30.08,SSE,152,5.0,9.0,78,0.00,,,0.00,40,Wunderground v.1.15,2013-10-08 13:07:00,
2013-10-08 08:13:00,49.9,43.3,30.08,SSE,152,5.0,9.0,78,0.00,,,0.00,54,Wunderground v.1.15,2013-10-08 13:13:00,
2013-10-08 08:19:00,50.3,43.4,30.08,SSE,152,4.0,9.0,77,0.00,,,0.00,70,Wunderground v.1.15,2013-10-08 13:19:00,
2013-10-08 08:25:00,50.7,43.8,30.08,SSE,153,3.0,9.0,77,0.00,,,0.00,91,Wunderground v.1.15,2013-10-08 13:25:00,
2013-10-08 08:31:00,51.4,44.4,30.08,SSE,153,3.0,9.0,77,0.00,,,0.00,113,Wunderground v.1.15,2013-10-08 13:31:00,
2013-10-08 08:37:00,52.3,45.0,30.08,SSE,155,3.0,9.0,76,0.00,,,0.00,135,Wunderground v.1.15,2013-10-08 13:37:00,
2013-10-08 08:43:00,53.0,45.3,30.08,SSE,158,3.0,9.0,75,0.00,,,0.00,160,Wunderground v.1.15,2013-10-08 13:43:00,
2013-10-08 08:49:00,53.9,45.4,30.08,SSE,160,3.0,9.0,73,0.00,,,0.00,183,Wunderground v.1.15,2013-10-08 13:49:00,
2013-10-08 08:55:00,54.8,45.9,30.08,SSE,164,4.0,9.0,72,0.00,,,0.00,204,Wunderground v.1.15,2013-10-08 13:55:00,
2013-10-08 09:01:00,56.0,46.7,30.08,SSE,168,4.0,9.0,71,0.00,,,0.00,225,Wunderground v.1.15,2013-10-08 14:01:00,
2013-10-08 09:07:00,57.1,46.6,30.08,SSE,166,5.0,9.0,68,0.00,,,0.00,243,Wunderground v.1.15,2013-10-08 14:07:00,
2013-10-08 09:13:00,58.0,46.7,30.08,SSE,161,5.0,9.0,66,0.00,,,0.00,260,Wunderground v.1.15,2013-10-08 14:13:00,
2013-10-08 09:19:00,58.8,47.5,30.09,South,174,5.0,9.0,66,0.00,,,0.00,279,Wunderground v.1.15,2013-10-08 14:19:00,
2013-10-08 09:25:00,59.8,46.7,30.08,South,170,6.0,9.0,62,0.00,,,0.00,299,Wunderground v.1.15,2013-10-08 14:25:00,
2013-10-08 09:32:00,60.4,46.4,30.08,SSE,150,8.0,12.0,60,0.00,,,0.00,316,Wunderground v.1.15,2013-10-08 14:32:00,
2013-10-08 09:37:00,60.7,46.3,30.08,South,174,9.0,12.0,59,0.00,,,0.00,336,Wunderground v.1.15,2013-10-08 14:37:00,
2013-10-08 09:43:00,61.3,46.8,30.08,SSE,163,8.0,9.0,59,0.00,,,0.00,355,Wunderground v.1.15,2013-10-08 14:43:00,
2013-10-08 09:49:00,62.1,46.7,30.08,South,188,8.0,9.0,57,0.00,,,0.00,371,Wunderground v.1.15,2013-10-08 14:49:00,
2013-10-08 09:55:00,62.6,46.7,30.08,South,171,8.0,9.0,56,0.00,,,0.00,388,Wunderground v.1.15,2013-10-08 14:55:00,
2013-10-08 10:01:00,63.5,47.0,30.08,South,172,7.0,9.0,55,0.00,,,0.00,406,Wunderground v.1.15,2013-10-08 15:01:00,
2013-10-08 10:08:00,64.4,46.9,30.08,South,176,8.0,11.0,53,0.00,,,0.00,424,Wunderground v.1.15,2013-10-08 15:08:00,
2013-10-08 10:13:00,64.9,46.3,30.08,South,170,10.0,14.0,51,0.00,,,0.00,441,Wunderground v.1.15,2013-10-08 15:13:00,
2013-10-08 10:19:00,65.6,47.0,30.08,South,172,10.0,14.0,51,0.00,,,0.00,459,Wunderground v.1.15,2013-10-08 15:19:00,
2013-10-08 10:25:00,66.0,46.8,30.08,South,189,10.0,14.0,50,0.00,,,0.00,475,Wunderground v.1.15,2013-10-08 15:25:00,
2013-10-08 10:31:00,66.6,46.3,30.08,SSE,149,11.0,16.0,48,0.00,,,0.00,487,Wunderground v.1.15,2013-10-08 15:31:00,
2013-10-08 10:37:00,67.1,47.3,30.08,South,186,11.0,16.0,49,0.00,,,0.00,503,Wunderground v.1.15,2013-10-08 15:37:00,
2013-10-08 10:43:00,67.5,46.0,30.08,SSE,168,11.0,14.0,46,0.00,,,0.00,519,Wunderground v.1.15,2013-10-08 15:43:00,
2013-10-08 10:49:00,67.7,46.2,30.08,SSE,168,11.0,14.0,46,0.00,,,0.00,534,Wunderground v.1.15,2013-10-08 15:49:00,
2013-10-08 10:55:00,68.0,45.3,30.07,SW,220,12.0,16.0,44,0.00,,,0.00,548,Wunderground v.1.15,2013-10-08 15:55:00,
2013-10-08 11:02:00,68.7,46.5,30.07,South,175,12.0,12.0,45,0.00,,,0.00,561,Wunderground v.1.15,2013-10-08 16:02:00,
2013-10-08 11:07:00,69.1,46.3,30.07,South,175,11.0,12.0,44,0.00,,,0.00,575,Wunderground v.1.15,2013-10-08 16:07:00,
2013-10-08 11:13:00,69.7,45.6,30.07,SSE,158,11.0,15.0,42,0.00,,,0.00,585,Wunderground v.1.15,2013-10-08 16:13:00,
2013-10-08 11:20:00,69.9,45.8,30.07,South,178,11.0,15.0,42,0.00,,,0.00,599,Wunderground v.1.15,2013-10-08 16:20:00,
2013-10-08 11:25:00,70.2,44.7,30.07,South,183,11.0,12.0,40,0.00,,,0.00,610,Wunderground v.1.15,2013-10-08 16:25:00,
2013-10-08 11:31:00,70.8,44.6,30.07,South,171,11.0,17.0,39,0.00,,,0.00,621,Wunderground v.1.15,2013-10-08 16:31:00,
2013-10-08 11:37:00,71.0,45.5,30.07,SSE,168,12.0,17.0,40,0.00,,,0.00,633,Wunderground v.1.15,2013-10-08 16:37:00,
2013-10-08 11:43:00,71.3,45.1,30.06,South,175,12.0,13.0,39,0.00,,,0.00,642,Wunderground v.1.15,2013-10-08 16:43:00,
2013-10-08 11:50:00,71.6,45.3,30.07,South,175,12.0,13.0,39,0.00,,,0.00,652,Wunderground v.1.15,2013-10-08 16:50:00,
2013-10-08 11:55:00,72.0,45.0,30.06,SSE,165,11.0,14.0,38,0.00,,,0.00,659,Wunderground v.1.15,2013-10-08 16:55:00,
2013-10-08 12:01:00,72.3,44.6,30.06,SSE,160,12.0,12.0,37,0.00,,,0.00,670,Wunderground v.1.15,2013-10-08 17:01:00,
2013-10-08 12:07:00,72.5,45.4,30.06,South,169,13.0,16.0,38,0.00,,,0.00,677,Wunderground v.1.15,2013-10-08 17:07:00,
2013-10-08 12:14:00,72.6,46.2,30.06,SSE,167,12.0,12.0,39,0.00,,,0.00,684,Wunderground v.1.15,2013-10-08 17:14:00,
2013-10-08 12:19:00,73.2,46.1,30.05,South,172,11.0,12.0,38,0.00,,,0.00,689,Wunderground v.1.15,2013-10-08 17:19:00,
2013-10-08 12:25:00,73.4,45.5,30.05,SSW,210,10.0,13.0,37,0.00,,,0.00,696,Wunderground v.1.15,2013-10-08 17:25:00,
2013-10-08 12:31:00,74.0,44.6,30.05,SSE,161,10.0,10.0,35,0.00,,,0.00,701,Wunderground v.1.15,2013-10-08 17:31:00,
2013-10-08 12:37:00,74.2,44.0,30.05,South,187,10.0,13.0,34,0.00,,,0.00,708,Wunderground v.1.15,2013-10-08 17:37:00,
2013-10-08 12:43:00,74.7,45.2,30.05,SE,134,10.0,12.0,35,0.00,,,0.00,714,Wunderground v.1.15,2013-10-08 17:43:00,
2013-10-08 12:49:00,75.0,45.5,30.05,South,169,10.0,12.0,35,0.00,,,0.00,717,Wunderground v.1.15,2013-10-08 17:49:00,
2013-10-08 12:55:00,74.6,44.4,30.05,South,169,12.0,21.0,34,0.00,,,0.00,721,Wunderground v.1.15,2013-10-08 17:55:00,
2013-10-08 13:01:00,74.9,46.9,30.04,South,170,14.0,14.0,37,0.00,,,0.00,722,Wunderground v.1.15,2013-10-08 18:01:00,
2013-10-08 13:07:00,75.4,45.8,30.04,SSE,148,12.0,20.0,35,0.00,,,0.00,724,Wunderground v.1.15,2013-10-08 18:07:00,
2013-10-08 13:13:00,75.3,45.0,30.04,South,179,13.0,14.0,34,0.00,,,0.00,724,Wunderground v.1.15,2013-10-08 18:13:00,
2013-10-08 13:20:00,75.6,45.2,30.03,SSE,162,11.0,14.0,34,0.00,,,0.00,726,Wunderground v.1.15,2013-10-08 18:20:00,
2013-10-08 13:25:00,76.3,46.6,30.03,South,172,10.0,16.0,35,0.00,,,0.00,726,Wunderground v.1.15,2013-10-08 18:25:00,
2013-10-08 13:31:00,76.4,45.9,30.03,South,190,11.0,11.0,34,0.00,,,0.00,724,Wunderground v.1.15,2013-10-08 18:31:00,
2013-10-08 13:38:00,76.3,45.1,30.02,SSE,160,10.0,19.0,33,0.00,,,0.00,719,Wunderground v.1.15,2013-10-08 18:38:00,
2013-10-08 13:43:00,75.9,43.9,30.02,SSE,159,14.0,17.0,32,0.00,,,0.00,724,Wunderground v.1.15,2013-10-08 18:43:00,
2013-10-08 13:49:00,76.2,46.5,30.01,SSE,167,14.0,17.0,35,0.00,,,0.00,724,Wunderground v.1.15,2013-10-08 18:49:00,
2013-10-08 13:55:00,76.5,44.4,30.01,South,177,11.0,16.0,32,0.00,,,0.00,705,Wunderground v.1.15,2013-10-08 18:55:00,
2013-10-08 14:01:00,76.7,43.8,30.01,SSE,159,12.0,15.0,31,0.00,,,0.00,715,Wunderground v.1.15,2013-10-08 19:01:00,
2013-10-08 14:07:00,76.9,44.0,30.01,SSE,159,12.0,16.0,31,0.00,,,0.00,714,Wunderground v.1.15,2013-10-08 19:07:00,
2013-10-08 14:13:00,76.6,44.5,30.00,SSE,161,14.0,23.0,32,0.00,,,0.00,708,Wunderground v.1.15,2013-10-08 19:13:00,
2013-10-08 14:19:00,76.8,43.9,30.00,South,170,14.0,23.0,31,0.00,,,0.00,703,Wunderground v.1.15,2013-10-08 19:19:00,
2013-10-08 14:25:00,76.8,44.7,30.00,South,175,13.0,13.0,32,0.00,,,0.00,698,Wunderground v.1.15,2013-10-08 19:25:00,
2013-10-08 14:31:00,77.3,44.3,30.00,SSE,166,13.0,13.0,31,0.00,,,0.00,693,Wunderground v.1.15,2013-10-08 19:31:00,
2013-10-08 14:37:00,77.5,44.5,30.00,SSE,156,13.0,13.0,31,0.00,,,0.00,684,Wunderground v.1.15,2013-10-08 19:37:00,
2013-10-08 14:43:00,77.7,43.8,29.99,SSE,156,11.0,12.0,30,0.00,,,0.00,680,Wunderground v.1.15,2013-10-08 19:43:00,
2013-10-08 14:49:00,77.7,45.5,29.99,South,170,9.0,15.0,32,0.00,,,0.00,670,Wunderground v.1.15,2013-10-08 19:49:00,
2013-10-08 14:55:00,77.8,44.7,29.99,SE,146,10.0,13.0,31,0.00,,,0.00,661,Wunderground v.1.15,2013-10-08 19:55:00,
2013-10-08 15:01:00,78.0,44.9,29.99,SSE,164,11.0,17.0,31,0.00,,,0.00,652,Wunderground v.1.15,2013-10-08 20:01:00,
2013-10-08 15:07:00,77.9,45.7,29.98,South,187,11.0,17.0,32,0.00,,,0.00,645,Wunderground v.1.15,2013-10-08 20:07:00,
2013-10-08 15:13:00,78.1,45.8,29.98,SSE,166,11.0,11.0,32,0.00,,,0.00,631,Wunderground v.1.15,2013-10-08 20:13:00,
2013-10-08 15:21:00,77.9,44.8,29.98,SSE,166,14.0,21.0,31,0.00,,,0.00,615,Wunderground v.1.15,2013-10-08 20:21:00,
2013-10-08 15:27:00,78.2,44.2,29.98,SSE,166,13.0,21.0,30,0.00,,,0.00,601,Wunderground v.1.15,2013-10-08 20:27:00,
2013-10-08 15:33:00,77.9,45.7,29.98,SSE,162,12.0,17.0,32,0.00,,,0.00,582,Wunderground v.1.15,2013-10-08 20:33:00,
2013-10-08 15:39:00,77.7,44.6,29.98,SSE,166,14.0,19.0,31,0.00,,,0.00,584,Wunderground v.1.15,2013-10-08 20:39:00,
2013-10-08 15:45:00,77.8,44.7,29.98,SSE,154,14.0,18.0,31,0.00,,,0.00,566,Wunderground v.1.15,2013-10-08 20:45:00,
2013-10-08 15:51:00,77.6,44.6,29.98,SSE,168,14.0,14.0,31,0.00,,,0.00,555,Wunderground v.1.15,2013-10-08 20:51:00,
2013-10-08 15:57:00,77.7,45.5,29.98,SSE,166,14.0,16.0,32,0.00,,,0.00,188,Wunderground v.1.15,2013-10-08 20:57:00,
2013-10-08 16:03:00,78.1,45.8,29.97,SSE,153,12.0,19.0,32,0.00,,,0.00,527,Wunderground v.1.15,2013-10-08 21:03:00,
2013-10-08 16:09:00,77.6,45.4,29.97,SSE,149,14.0,19.0,32,0.00,,,0.00,512,Wunderground v.1.15,2013-10-08 21:09:00,
2013-10-08 16:15:00,77.3,44.3,29.98,South,190,17.0,20.0,31,0.00,,,0.00,473,Wunderground v.1.15,2013-10-08 21:15:00,
2013-10-08 16:21:00,77.6,45.4,29.97,SSE,164,14.0,14.0,32,0.00,,,0.00,492,Wunderground v.1.15,2013-10-08 21:21:00,
2013-10-08 16:27:00,77.6,45.4,29.97,SSE,160,12.0,20.0,32,0.00,,,0.00,475,Wunderground v.1.15,2013-10-08 21:27:00,
2013-10-08 16:33:00,77.5,45.3,29.97,SE,143,14.0,20.0,32,0.00,,,0.00,462,Wunderground v.1.15,2013-10-08 21:33:00,
2013-10-08 16:39:00,77.1,45.8,29.97,SSE,149,16.0,20.0,33,0.00,,,0.00,431,Wunderground v.1.15,2013-10-08 21:39:00,
2013-10-08 16:45:00,76.9,45.6,29.97,SSE,148,16.0,20.0,33,0.00,,,0.00,373,Wunderground v.1.15,2013-10-08 21:45:00,
2013-10-08 16:51:00,76.7,46.2,29.97,SSE,162,15.0,15.0,34,0.00,,,0.00,364,Wunderground v.1.15,2013-10-08 21:51:00,
2013-10-08 16:57:00,76.4,45.9,29.97,SSE,155,16.0,24.0,34,0.00,,,0.00,343,Wunderground v.1.15,2013-10-08 21:57:00,
2013-10-08 17:03:00,76.3,45.9,29.97,SSE,153,15.0,18.0,34,0.00,,,0.00,237,Wunderground v.1.15,2013-10-08 22:03:00,
2013-10-08 17:10:00,75.7,46.1,29.97,SE,143,15.0,18.0,35,0.00,,,0.00,258,Wunderground v.1.15,2013-10-08 22:10:00,
2013-10-08 17:15:00,75.7,46.1,29.96,SSE,156,15.0,20.0,35,0.00,,,0.00,227,Wunderground v.1.15,2013-10-08 22:15:00,
2013-10-08 17:21:00,75.3,46.5,29.96,SE,143,16.0,18.0,36,0.00,,,0.00,216,Wunderground v.1.15,2013-10-08 22:21:00,
2013-10-08 17:27:00,74.9,46.1,29.97,SSE,165,16.0,18.0,36,0.00,,,0.00,202,Wunderground v.1.15,2013-10-08 22:27:00,
2013-10-08 17:33:00,74.8,46.1,29.96,SSE,150,15.0,19.0,36,0.00,,,0.00,246,Wunderground v.1.15,2013-10-08 22:33:00,
2013-10-08 17:40:00,74.8,46.1,29.96,SE,134,14.0,19.0,36,0.00,,,0.00,193,Wunderground v.1.15,2013-10-08 22:40:00,
2013-10-08 17:45:00,74.4,45.7,29.97,SSE,158,13.0,16.0,36,0.00,,,0.00,142,Wunderground v.1.15,2013-10-08 22:45:00,
2013-10-08 17:51:00,73.9,46.0,29.97,SSE,160,15.0,15.0,37,0.00,,,0.00,86,Wunderground v.1.15,2013-10-08 22:51:00,
2013-10-08 17:57:00,73.5,45.6,29.96,SSE,158,14.0,15.0,37,0.00,,,0.00,90,Wunderground v.1.15,2013-10-08 22:57:00,
2013-10-08 18:03:00,73.2,44.6,29.96,SE,142,13.0,13.0,36,0.00,,,0.00,116,Wunderground v.1.15,2013-10-08 23:03:00,
2013-10-08 18:09:00,72.9,45.1,29.96,SSE,150,13.0,16.0,37,0.00,,,0.00,93,Wunderground v.1.15,2013-10-08 23:09:00,
2013-10-08 18:15:00,72.6,45.5,29.96,SSE,156,11.0,14.0,38,0.00,,,0.00,88,Wunderground v.1.15,2013-10-08 23:15:00,
2013-10-08 18:21:00,72.2,45.9,29.96,SSE,155,10.0,10.0,39,0.00,,,0.00,54,Wunderground v.1.15,2013-10-08 23:21:00,
2013-10-08 18:28:00,71.9,45.6,29.96,SSE,158,10.0,15.0,39,0.00,,,0.00,46,Wunderground v.1.15,2013-10-08 23:28:00,
2013-10-08 18:33:00,71.5,45.9,29.97,SE,129,11.0,11.0,40,0.00,,,0.00,62,Wunderground v.1.15,2013-10-08 23:33:00,
2013-10-08 18:39:00,71.0,46.7,29.97,SSE,150,10.0,11.0,42,0.00,,,0.00,28,Wunderground v.1.15,2013-10-08 23:39:00,
2013-10-08 18:45:00,70.4,46.8,29.96,SSE,154,9.0,14.0,43,0.00,,,0.00,19,Wunderground v.1.15,2013-10-08 23:45:00,
2013-10-08 18:51:00,69.5,47.2,29.97,SE,145,8.0,10.0,45,0.00,,,0.00,12,Wunderground v.1.15,2013-10-08 23:51:00,
2013-10-08 18:57:00,68.8,47.7,29.96,SSE,147,7.0,10.0,47,0.00,,,0.00,7,Wunderground v.1.15,2013-10-08 23:57:00,
2013-10-08 19:03:00,68.2,47.8,29.96,SSE,157,6.0,9.0,48,0.00,,,0.00,0,Wunderground v.1.15,2013-10-09 00:03:00,
2013-10-08 19:09:00,67.6,48.3,29.96,SSE,154,6.0,9.0,50,0.00,,,0.00,0,Wunderground v.1.15,2013-10-09 00:09:00,
2013-10-08 19:15:00,67.1,47.8,29.96,SSE,158,6.0,9.0,50,0.00,,,0.00,0,Wunderground v.1.15,2013-10-09 00:15:00,
2013-10-08 19:21:00,67.0,48.3,29.96,SSE,156,7.0,7.0,51,0.00,,,0.00,0,Wunderground v.1.15,2013-10-09 00:21:00,
2013-10-08 19:27:00,66.7,48.0,29.96,SSE,156,7.0,9.0,51,0.00,,,0.00,0,Wunderground v.1.15,2013-10-09 00:27:00,
2013-10-08 19:33:00,66.5,47.8,29.97,SSE,156,7.0,9.0,51,0.00,,,0.00,0,Wunderground v.1.15,2013-10-09 00:33:00,
2013-10-08 19:39:00,66.2,48.0,29.97,SE,143,7.0,9.0,52,0.00,,,0.00,0,Wunderground v.1.15,2013-10-09 00:39:00,
2013-10-08 19:45:00,65.9,47.8,29.97,SSE,147,7.0,9.0,52,0.00,,,0.00,0,Wunderground v.1.15,2013-10-09 00:45:00,
2013-10-08 19:51:00,65.6,48.0,29.97,SE,137,7.0,9.0,53,0.00,,,0.00,0,Wunderground v.1.15,2013-10-09 00:51:00,
2013-10-08 19:57:00,65.3,47.7,29.97,SE,143,7.0,9.0,53,0.00,,,0.00,0,Wunderground v.1.15,2013-10-09 00:57:00,
2013-10-08 20:03:00,64.9,47.9,29.98,SSE,152,6.0,9.0,54,0.00,,,0.00,0,Wunderground v.1.15,2013-10-09 01:03:00,
2013-10-08 20:11:00,64.1,48.1,29.98,SSE,150,5.0,9.0,56,0.00,,,0.00,0,Wunderground v.1.15,2013-10-09 01:11:00,
2013-10-08 20:17:00,63.9,47.9,29.97,SE,142,6.0,9.0,56,0.00,,,0.00,0,Wunderground v.1.15,2013-10-09 01:17:00,
2013-10-08 20:23:00,63.7,48.2,29.97,SSE,147,7.0,10.0,57,0.00,,,0.00,0,Wunderground v.1.15,2013-10-09 01:23:00,
2013-10-08 20:29:00,63.7,48.6,29.97,SSE,147,7.0,10.0,58,0.00,,,0.00,0,Wunderground v.1.15,2013-10-09 01:29:00,
2013-10-08 20:35:00,63.7,48.6,29.97,SE,139,7.0,10.0,58,0.00,,,0.00,0,Wunderground v.1.15,2013-10-09 01:35:00,
2013-10-08 20:41:00,63.6,48.5,29.97,SSE,151,7.0,10.0,58,0.00,,,0.00,0,Wunderground v.1.15,2013-10-09 01:41:00,
2013-10-08 20:47:00,63.5,48.9,29.97,SE,139,6.0,10.0,59,0.00,,,0.00,0,Wunderground v.1.15,2013-10-09 01:47:00,
2013-10-08 20:53:00,63.3,48.7,29.97,SSE,155,7.0,9.0,59,0.00,,,0.00,0,Wunderground v.1.15,2013-10-09 01:53:00,
2013-10-08 20:59:00,63.2,49.1,29.97,SSE,150,7.0,9.0,60,0.00,,,0.00,0,Wunderground v.1.15,2013-10-09 01:59:00,
2013-10-08 21:05:00,63.1,49.0,29.97,SE,139,7.0,10.0,60,0.00,,,0.00,0,Wunderground v.1.15,2013-10-09 02:05:00,
2013-10-08 21:11:00,63.1,49.4,29.97,SE,145,7.0,7.0,61,0.00,,,0.00,0,Wunderground v.1.15,2013-10-09 02:11:00,
2013-10-08 21:17:00,63.1,49.4,29.97,SSE,150,8.0,13.0,61,0.00,,,0.00,0,Wunderground v.1.15,2013-10-09 02:17:00,
2013-10-08 21:23:00,63.1,49.4,29.98,SE,141,9.0,9.0,61,0.00,,,0.00,0,Wunderground v.1.15,2013-10-09 02:23:00,
2013-10-08 21:29:00,63.0,49.8,29.98,SE,145,8.0,9.0,62,0.00,,,0.00,0,Wunderground v.1.15,2013-10-09 02:29:00,
2013-10-08 21:35:00,62.9,49.7,29.98,SE,135,8.0,11.0,62,0.00,,,0.00,0,Wunderground v.1.15,2013-10-09 02:35:00,
2013-10-08 21:41:00,62.7,49.9,29.98,SE,145,9.0,10.0,63,0.00,,,0.00,0,Wunderground v.1.15,2013-10-09 02:41:00,
2013-10-08 21:47:00,62.5,49.7,29.98,SSE,148,9.0,11.0,63,0.00,,,0.00,0,Wunderground v.1.15,2013-10-09 02:47:00,
2013-10-08 21:53:00,62.3,49.5,29.98,SSE,163,8.0,9.0,63,0.00,,,0.00,0,Wunderground v.1.15,2013-10-09 02:53:00,
2013-10-08 21:59:00,62.2,49.9,29.98,SSE,152,9.0,13.0,64,0.00,,,0.00,0,Wunderground v.1.15,2013-10-09 02:59:00,
2013-10-08 22:05:00,62.0,49.7,29.98,SE,139,9.0,12.0,64,0.00,,,0.00,0,Wunderground v.1.15,2013-10-09 03:05:00,
2013-10-08 22:11:00,61.8,49.9,29.98,SSE,162,8.0,11.0,65,0.00,,,0.00,0,Wunderground v.1.15,2013-10-09 03:11:00,
2013-10-08 22:17:00,61.6,49.7,29.98,SSE,158,8.0,11.0,65,0.00,,,0.00,0,Wunderground v.1.15,2013-10-09 03:17:00,
2013-10-08 22:23:00,61.5,49.6,29.98,South,174,8.0,9.0,65,0.00,,,0.00,0,Wunderground v.1.15,2013-10-09 03:23:00,
2013-10-08 22:29:00,61.3,49.8,29.98,SSE,158,8.0,9.0,66,0.00,,,0.00,0,Wunderground v.1.15,2013-10-09 03:29:00,
2013-10-08 22:35:00,61.3,49.8,29.98,SSE,156,8.0,10.0,66,0.00,,,0.00,0,Wunderground v.1.15,2013-10-09 03:35:00,
2013-10-08 22:41:00,61.1,49.7,29.99,SSE,151,8.0,9.0,66,0.00,,,0.00,0,Wunderground v.1.15,2013-10-09 03:41:00,
2013-10-08 22:47:00,61.0,49.6,29.98,SE,145,8.0,9.0,66,0.00,,,0.00,0,Wunderground v.1.15,2013-10-09 03:47:00,
2013-10-08 22:53:00,60.6,49.6,29.98,South,182,8.0,9.0,67,0.00,,,0.00,0,Wunderground v.1.15,2013-10-09 03:53:00,
2013-10-08 22:59:00,60.5,49.5,29.98,SSE,147,7.0,11.0,67,0.00,,,0.00,0,Wunderground v.1.15,2013-10-09 03:59:00,
2013-10-08 23:01:00,60.4,49.4,29.98,SSE,151,8.0,8.0,67,0.00,,,0.00,0,Wunderground v.1.15,2013-10-09 04:01:00,
2013-10-08 23:03:00,60.4,49.4,29.98,SE,141,8.0,10.0,67,0.00,,,0.00,0,Wunderground v.1.15,2013-10-09 04:03:00,
2013-10-08 23:09:00,60.2,49.6,29.98,SSE,154,8.0,10.0,68,0.00,,,0.00,0,Wunderground v.1.15,2013-10-09 04:09:00,
2013-10-08 23:11:00,60.1,49.5,29.98,SE,143,8.0,8.0,68,0.00,,,0.00,0,Wunderground v.1.15,2013-10-09 04:11:00,
2013-10-08 23:17:00,59.9,49.3,29.98,SSE,149,8.0,9.0,68,0.00,,,0.00,0,Wunderground v.1.15,2013-10-09 04:17:00,
2013-10-08 23:19:00,59.8,49.2,29.98,SSE,162,8.0,9.0,68,0.00,,,0.00,0,Wunderground v.1.15,2013-10-09 04:19:00,
2013-10-08 23:23:00,59.8,49.2,29.98,SSE,152,7.0,9.0,68,0.00,,,0.00,0,Wunderground v.1.15,2013-10-09 04:23:00,
2013-10-08 23:29:00,59.6,49.0,29.98,SSE,153,7.0,10.0,68,0.00,,,0.00,0,Wunderground v.1.15,2013-10-09 04:29:00,
2013-10-08 23:35:00,59.4,49.2,29.98,SE,136,8.0,9.0,69,0.00,,,0.00,0,Wunderground v.1.15,2013-10-09 04:35:00,
2013-10-08 23:41:00,59.4,49.2,29.98,SSE,156,8.0,9.0,69,0.00,,,0.00,0,Wunderground v.1.15,2013-10-09 04:41:00,
2013-10-08 23:47:00,59.3,49.1,29.98,SSE,150,7.0,9.0,69,0.00,,,0.00,0,Wunderground v.1.15,2013-10-09 04:47:00,
2013-10-08 23:54:00,59.1,48.9,29.98,SE,139,7.0,9.0,69,0.00,,,0.00,0,Wunderground v.1.15,2013-10-09 04:54:00,
2013-10-08 23:59:00,59.0,48.8,29.98,SSE,153,7.0,9.0,69,0.00,,,0.00,0,Wunderground v.1.15,2013-10-09 04:59:00,